Date String (YYYY-MM-DD hh:mm:ss) UTC,Instrument flags,Ambient pressure (hPa),Sample flow (lpm),Bypass flow (lpm),Sample temperature (°C),Ambient temperature (°C),ASC tube jacket temperature (°C),LED temperature (°C),Box temperature (°C),Sample RH (%),Span deviation,Mass concentration (μg/m³),Mass concentration (μg/m³),Mass concentration (μg/m³)
DateTimeUTC,F1_M11,P_M11,Q1_M11,Q2_M11,T1_M11,T2_M11,T3_M11,T4_M11,T5_M11,U1_M11,ZSPAN_M11,X0_M11,X2_M11,X1_M11
2022-11-04 22:00:00,,0818.9,5.01,0.00,25.8,24.6,00.0,34.5,27.8,10.3,0000.0,0007.23,0004.99,0004.78
2022-11-04 22:01:00,,0818.9,5.00,0.00,25.8,24.7,00.0,34.5,27.8,10.0,0000.0,0006.91,0004.78,0004.57
2022-11-04 22:02:00,,0819.0,4.99,0.00,25.8,24.7,00.0,34.5,27.8,10.4,0000.0,0006.65,0004.66,0004.44
2022-11-04 22:03:00,,0818.9,5.01,0.00,25.8,24.7,00.0,34.5,27.8,10.5,0000.0,0006.37,0004.56,0004.35
2022-11-04 22:04:00,,0818.9,4.99,0.00,25.9,24.7,00.0,34.6,27.9,11.1,0000.0,0006.28,0004.45,0004.23
2022-11-04 22:05:00,,0818.8,5.00,0.00,25.9,24.7,00.0,34.6,27.9,09.3,0000.0,0006.15,0004.38,0004.17
2022-11-04 22:06:00,,0818.8,5.01,0.00,25.9,24.7,00.0,34.6,27.9,09.0,0000.0,0005.93,0004.25,0004.04
2022-11-04 22:07:00,,0818.8,5.00,0.00,25.9,24.7,00.0,34.6,27.8,09.1,0000.0,0005.82,0004.17,0003.95
2022-11-04 22:08:00,,0818.8,4.99,0.00,25.9,24.7,00.0,34.6,27.9,09.3,0000.0,0005.97,0004.14,0003.93
2022-11-04 22:09:00,,0818.8,5.01,0.00,25.9,24.7,00.0,34.6,27.9,09.5,0000.0,0006.78,0004.11,0003.90
2022-11-04 22:10:00,,0818.8,4.99,0.00,25.9,24.7,00.0,34.6,27.9,11.2,0000.0,0007.06,0004.20,0003.96
2022-11-04 22:11:00,,0818.8,5.00,0.00,25.9,24.8,00.0,34.6,27.9,12.1,0000.0,0007.91,0004.38,0004.11
2022-11-04 22:12:00,,0818.9,5.00,0.00,26.0,24.8,00.0,34.6,27.9,11.3,0000.0,0008.24,0004.51,0004.24
2022-11-04 22:13:00,,0818.9,4.99,0.00,26.0,24.8,00.0,34.6,27.9,11.8,0000.0,0008.32,0004.61,0004.35
2022-11-04 22:14:00,,0818.9,5.00,0.00,26.0,24.8,00.0,34.7,28.0,12.0,0000.0,0008.38,0004.71,0004.49
2022-11-04 22:15:00,,0818.8,5.01,0.00,26.0,24.8,00.0,34.7,28.0,12.2,0000.0,0008.57,0004.87,0004.65
2022-11-04 22:16:00,,0818.7,5.00,0.00,26.0,24.8,00.0,34.7,28.0,11.8,0000.0,0009.01,0005.06,0004.81
2022-11-04 22:17:00,,0818.7,4.99,0.00,26.0,24.8,00.0,34.7,28.0,11.9,0000.0,0009.44,0005.35,0005.08
2022-11-04 22:18:00,,0818.8,4.99,0.00,26.0,24.9,00.0,34.7,28.0,12.2,0000.0,0009.91,0005.64,0005.34
2022-11-04 22:19:00,,0818.7,5.01,0.00,26.0,24.9,00.0,34.7,28.0,12.3,0000.0,0010.15,0005.89,0005.58
2022-11-04 22:20:00,,0818.8,5.01,0.00,26.0,24.9,00.0,34.7,28.0,12.2,0000.0,0009.81,0006.13,0005.81
2022-11-04 22:21:00,,0818.9,4.98,0.00,26.1,24.9,00.0,34.7,28.0,11.9,0000.0,0009.88,0006.22,0005.92
2022-11-04 22:22:00,,0818.9,5.00,0.00,26.1,24.9,00.0,34.7,28.0,11.3,-000.8,0009.57,0006.14,0005.86
2022-11-04 22:23:00,,0818.9,5.01,0.00,26.1,24.9,00.0,34.8,28.0,08.1,-000.3,0009.23,0005.91,0005.64
2022-11-04 22:24:00,,0818.9,5.00,0.00,26.1,24.9,00.0,34.8,28.0,07.6,0000.0,0008.82,0005.56,0005.32
2022-11-04 22:25:00,,0818.9,4.98,0.00,26.1,24.9,00.0,34.8,28.1,07.0,0000.0,0008.78,0005.25,0005.01
2022-11-04 22:26:00,,0818.9,5.02,0.00,26.1,24.9,00.0,34.8,28.1,07.1,0000.0,0008.66,0004.85,0004.62
2022-11-04 22:27:00,,0818.9,5.00,0.00,26.1,24.9,00.0,34.8,28.1,07.1,0000.0,0007.97,0004.46,0004.23
2022-11-04 22:28:00,,0818.9,4.99,0.00,26.1,24.9,00.0,34.8,28.1,07.3,0000.0,0007.45,0004.07,0003.88
2022-11-04 22:29:00,,0818.9,5.01,0.00,26.1,24.9,00.0,34.8,28.0,07.6,0000.0,0006.47,0003.66,0003.51
2022-11-04 22:30:00,,0818.9,5.01,0.00,26.1,24.9,00.0,34.8,28.1,07.1,0000.0,0005.65,0003.28,0003.10
2022-11-04 22:31:00,,0818.9,5.00,0.00,26.1,24.8,00.0,34.8,28.0,07.6,0000.0,0004.84,0002.64,0002.44
2022-11-04 22:32:00,,0818.9,4.98,0.00,26.1,24.8,00.0,34.8,28.0,07.4,0000.0,0004.95,0001.94,0001.76
2022-11-04 22:33:00,,0818.9,5.01,0.00,26.1,24.8,00.0,34.8,28.0,07.0,0000.0,0005.32,0001.31,0001.15
2022-11-04 22:34:00,,0818.8,5.01,0.00,26.1,24.8,00.0,34.8,28.0,07.1,0000.0,0005.86,0001.01,0000.84
2022-11-04 22:35:00,,0818.8,4.99,0.00,26.1,24.8,00.0,34.8,28.0,07.0,0000.0,0005.94,0001.04,0000.84
2022-11-04 22:36:00,,0818.8,5.00,0.00,26.1,24.8,00.0,34.9,28.0,07.2,0000.0,0005.63,0001.05,0000.85
2022-11-04 22:37:00,,0818.8,5.00,0.00,26.1,24.7,00.0,34.9,28.0,07.2,0000.0,0005.16,0001.05,0000.85
2022-11-04 22:38:00,,0818.8,4.99,0.00,26.1,24.7,00.0,34.9,28.0,07.2,0000.0,0005.14,0001.06,0000.85
2022-11-04 22:39:00,,0818.7,5.00,0.00,26.1,24.7,00.0,34.9,28.0,07.0,0000.0,0005.29,0001.07,0000.86
2022-11-04 22:40:00,,0818.7,5.00,0.00,26.1,24.7,00.0,34.9,28.0,07.2,0000.0,0005.51,0001.06,0000.86
2022-11-04 22:41:00,,0818.7,5.01,0.00,26.1,24.7,00.0,34.8,28.0,07.0,0000.0,0005.47,0001.05,0000.86
2022-11-04 22:42:00,,0818.8,5.00,0.00,26.1,24.6,00.0,34.8,27.9,06.9,0000.0,0005.57,0001.09,0000.87
2022-11-04 22:43:00,,0818.8,5.00,0.00,26.1,24.7,00.0,34.8,28.0,07.1,0000.0,0004.64,0001.09,0000.88
2022-11-04 22:44:00,,0818.8,4.98,0.00,26.1,24.7,00.0,34.8,28.0,07.1,0000.0,0003.13,0001.10,0000.88
2022-11-04 22:45:00,,0818.7,4.99,0.00,26.1,24.7,00.0,34.8,28.0,07.3,0000.0,0002.17,0001.09,0000.88
2022-11-04 22:46:00,,0818.8,5.01,0.00,26.1,24.7,00.0,34.8,28.0,07.2,0000.0,0002.24,0001.11,0000.88
2022-11-04 22:47:00,,0818.8,5.00,0.00,26.1,24.7,00.0,34.8,28.0,07.0,0000.0,0002.69,0001.12,0000.88
2022-11-04 22:48:00,,0818.8,5.00,0.00,26.1,24.6,00.0,34.8,28.0,07.1,0000.0,0003.02,0001.13,0000.88
2022-11-04 22:49:00,,0818.7,4.98,0.00,26.1,24.6,00.0,34.8,28.0,06.9,0000.0,0003.10,0001.16,0000.88
2022-11-04 22:50:00,,0818.8,5.02,0.00,26.1,24.7,00.0,34.8,28.0,06.8,0000.0,0002.91,0001.15,0000.89
2022-11-04 22:51:00,,0818.7,5.00,0.00,26.1,24.7,00.0,34.8,28.0,07.0,0000.0,0002.69,0001.15,0000.89
2022-11-04 22:52:00,,0818.7,4.98,0.00,26.1,24.6,00.0,34.8,28.0,07.4,0000.0,0002.75,0001.17,0000.90
2022-11-04 22:53:00,,0818.7,5.00,0.00,26.1,24.6,00.0,34.8,28.0,07.3,0000.0,0002.65,0001.14,0000.89
2022-11-04 22:54:00,,0818.7,5.01,0.00,26.1,24.6,00.0,34.8,27.9,07.1,0000.0,0002.60,0001.12,0000.90
2022-11-04 22:55:00,,0818.7,5.01,0.00,26.0,24.6,00.0,34.8,27.9,07.0,0000.0,0002.52,0001.11,0000.90
2022-11-04 22:56:00,,0818.6,4.98,0.00,26.0,24.6,00.0,34.8,27.9,07.2,0000.0,0002.51,0001.12,0000.91
2022-11-04 22:57:00,,0818.5,5.01,0.00,26.0,24.6,00.0,34.8,27.9,07.3,0000.0,0002.46,0001.10,0000.91
2022-11-04 22:58:00,,0818.5,5.01,0.00,26.0,24.6,00.0,34.8,27.9,07.3,0000.0,0002.11,0001.09,0000.91
2022-11-04 22:59:00,,0818.5,4.99,0.00,26.0,24.6,00.0,34.8,27.9,07.2,0000.0,0001.60,0001.08,0000.92
